Regional Weather Roundup
Issued by NWS

Home | Current Version | Previous Version | Text Only | Print | Product List | Glossary On
Versions: 1 2 3 4 5 6 7 8 9 10 11 12 13 14 15 16 17 18 19 20 21 22 23 24 25 26 27 28 29 30 31 32 33 34 35 36 37 38 39 40 41 42 43 44 45 46 47 48 49 50
000
ASUS44 KMEG 202310
RWRTN
TENNESSEE HOURLY STATE WEATHER ROUNDUP
NATIONAL WEATHER SERVICE MEMPHIS TN
600 PM CDT WED SEP 20 2017

TNZ002-004-019-021-049-052-054-088>092-210000-
WEST TENNESSEE

CITY           SKY/WX    TMP DP  RH WIND       PRES   REMARKS
MEMPHIS INTL   MOSUNNY   88  73  61 S8        29.95R HX  95
NWS MEMPHIS      N/A     90 N/A N/A MISG        N/A
JACKSON        SUNNY     87  74  64 S3        29.97R HX  95
DYERSBURG      SUNNY     88  73  61 S3        29.96R HX  95
SOMERVILLE     SUNNY     88  73  62 S3        29.95S HX  96
COVINGTON      SUNNY     88  73  62 S5        29.94S HX  96
BOLIVAR        SUNNY     88  72  58 CALM      29.96S HX  94
PARIS          CLEAR     88  70  55 SW7       29.96R HX  92
HUNTINGDON     CLEAR     88  73  62 S5        29.95S HX  96
LEXINGTON      CLEAR     88  72  58 SW6       29.97R HX  94
SELMER         SUNNY     86  75  70 MISG      29.97S HX  95
SAVANNAH       CLEAR     88  72  58 S5        29.96S HX  94
$$

TNZ008-025-027-028-033-062-065-066-210000-
NORTH MIDDLE TENNESSEE

CITY           SKY/WX    TMP DP  RH WIND       PRES   REMARKS
NASHVILLE      MOCLDY    87  70  56 NE6       30.00R HX  92
PORTLAND       CLEAR     84  72  65 S3        30.00R
CLARKSVILLE    CLEAR     87  69  54 SW3       29.98R HX  91
SMYRNA         PTCLDY    88  70  55 SE5       30.00S HX  92
COOKEVILLE     CLEAR     84  68  58 CALM      30.02S
GALLATIN       CLEAR     86  70  58 CALM      30.02R HX  90
CROSSVILLE     CLOUDY    73  66  78 CALM      30.08S
$$

TNZ061-075-076-078-094-096-097-210000-
SOUTH MIDDLE TENNESSEE

CITY           SKY/WX    TMP DP  RH WIND       PRES   REMARKS
FAYETTEVILLE   PTCLDY    84  70  61 S5        30.01R
TULLAHOMA      CLEAR     84  66  54 CALM      30.03S
WINCHESTER     CLEAR     84  70  61 CALM        N/A
MCMINNVILLE    CLEAR     86  73  66 CALM      30.02S HX  93
COLUMBIA       PTCLDY    84  72  65 N7        29.97R
SHELBYVILLE    CLEAR     84  70  61 CALM      30.00S
$$

TNZ017-018-042-046-047-210000-
NORTHEAST TENNESSEE

CITY           SKY/WX    TMP DP  RH WIND       PRES   REMARKS
TRI CITIES     PTCLDY    80  65  59 N3        30.04R
ELIZABETHTON   CLEAR     77  63  61 NW3       30.05R
$$

TNZ012-013-036-069-073-074-210000-
CENTRAL EAST TENNESSEE

CITY           SKY/WX    TMP DP  RH WIND       PRES   REMARKS
KNOXVILLE      MOCLDY    84  63  49 NW6       30.02R
OAK RIDGE      PTCLDY    82  69  64 VRB3      30.04S
DOWNTOWN KNOXV CLEAR     75  70  83 CALM      30.01R
GATLINBURG     CLEAR     82  61  47 NW3       30.02R
MORRISTOWN     CLEAR     82  63  51 W3        30.03R
JACKSBORO      CLOUDY    75  70  83 S3        30.08R
$$

TNZ083-085-099-210000-
SOUTHEAST TENNESSEE

CITY           SKY/WX    TMP DP  RH WIND       PRES   REMARKS
CHATTANOOGA    PTCLDY    86  66  51 CALM      30.00S
DAYTON         CLEAR     75  72  88 N5        30.01R
$$

SKY/WX REPORTED AS FAIR MEANS FEW OR NO CLOUDS BELOW
12 THOUSAND FEET.





USA.gov is the U.S. government's official web portal to all federal, state and local government web resources and services.